N9AZZ Weather Reports


time (UTC)temp
C
wind
direction
speed
KPH
gust
KPH
rain 1hr
cm
rain 24hr
cm
rain mn
cm
humidity
%
barometer
mb
20260906004026 30 0 0.0 0.0 0.00 0.00 0.00 68 1011.5
20260906003517 30 0 0.0 1.6 0.00 0.00 0.00 67 1011.5
20260906002516 31 0 0.0 1.6 0.00 0.00 0.00 65 1011.3
20260906002018 31 0 0.0 0.0 0.00 0.00 0.00 65 1011.4
20260906001535 31 0 0.0 3.2 0.00 0.00 0.00 65 1011.4
20260906001017 31 0 0.0 3.2 0.00 0.00 0.00 64 1011.3
20260906000517 31 0 0.0 1.6 0.00 0.00 0.00 64 1011.3
20260906000035 32 235 0.0 1.6 0.00 0.00 0.00 64 1011.5
20260905235516 32 0 0.0 0.0 0.00 0.00 0.00 63 1011.4
20260905235021 32 0 0.0 0.0 0.00 0.00 0.00 63 1011.5
20260905234543 32 0 0.0 1.6 0.00 0.00 0.00 62 1011.6
20260905234017 32 0 0.0 1.6 0.00 0.00 0.00 63 1011.4
20260905233517 33 0 0.0 1.6 0.00 0.00 0.00 61 1011.6
20260905233034 33 0 0.0 3.2 0.00 0.00 0.00 61 1011.6
20260905232517 33 0 0.0 3.2 0.00 0.00 0.00 60 1011.9
20260905232019 33 259 0.0 1.6 0.00 0.00 0.00 59 1011.8
20260905231535 34 237 0.0 1.6 0.00 0.00 0.00 58 1011.7
20260905231015 34 0 0.0 1.6 0.00 0.00 0.00 58 1011.6
20260905230521 35 0 0.0 3.2 0.00 0.00 0.00 58 1011.6
20260905230042 35 0 0.0 3.2 0.00 0.00 0.00 58 1011.6
20260905225516 35 236 0.0 9.7 0.00 0.00 0.00 56 1011.5
20260905225019 35 307 1.6 9.7 0.00 0.00 0.00 56 1011.5
20260905224537 35 234 1.6 12.9 0.00 0.00 0.00 55 1011.4
20260905224020 35 265 3.2 12.9 0.00 0.00 0.00 55 1011.2
20260905223522 36 231 0.0 6.4 0.00 0.00 0.00 56 1011.3
20260905223037 36 288 1.6 6.4 0.00 0.00 0.00 54 1011.4
20260905222520 36 308 1.6 4.8 0.00 0.00 0.00 53 1011.5
20260905222016 36 243 0.0 4.8 0.00 0.00 0.00 54 1011.4
20260905221535 36 311 1.6 4.8 0.00 0.00 0.00 51 1011.3
20260905221019 36 34 1.6 4.8 0.00 0.00 0.00 53 1011.1
20260905220523 36 0 0.0 1.6 0.00 0.00 0.00 57 1011.1
20260905215524 36 0 0.0 1.6 0.00 0.00 0.00 54 1011.2
20260905215019 37 0 0.0 1.6 0.00 0.00 0.00 56 1011.2
20260905214018 37 30 0.0 1.6 0.00 0.00 0.00 56 1011.3
20260905213516 37 0 0.0 1.6 0.00 0.00 0.00 53 1011.3
20260905212518 37 0 0.0 3.2 0.00 0.00 0.00 53 1011.3
20260905212018 37 0 0.0 3.2 0.00 0.00 0.00 52 1011.2
20260905211023 37 316 1.6 3.2 0.00 0.00 0.00 50 1011.4
20260905210521 37 0 0.0 1.6 0.00 0.00 0.00 51 1011.5
20260905205516 37 0 0.0 4.8 0.00 0.00 0.00 52 1011.6
20260905205021 37 307 0.0 4.8 0.00 0.00 0.00 53 1011.7
20260905204537 37 226 0.0 4.8 0.00 0.00 0.00 52 1011.7
20260905204016 36 314 0.0 3.2 0.00 0.00 0.00 51 1011.7
20260905203516 36 301 1.6 3.2 0.00 0.00 0.00 53 1011.8
20260905202521 36 0 0.0 0.0 0.00 0.00 0.00 57 1011.9
20260905202020 37 0 0.0 1.6 0.00 0.00 0.00 56 1011.9
20260905201019 37 6 1.6 4.8 0.00 0.00 0.00 52 1011.9
20260905200521 37 0 0.0 3.2 0.00 0.00 0.00 54 1012.0
20260905195525 37 1 0.0 1.6 0.00 0.00 0.00 51 1012.0
20260905195022 38 345 0.0 3.2 0.00 0.00 0.00 53 1012.1
20260905194018 38 19 1.6 4.8 0.00 0.00 0.00 50 1012.3
20260905193516 38 50 0.0 6.4 0.00 0.00 0.00 50 1012.3
20260905193038 38 0 1.6 6.4 0.00 0.00 0.00 47 1012.3
20260905192518 38 315 0.0 3.2 0.00 0.00 0.00 49 1012.4
20260905192025 38 210 0.0 8.0 0.00 0.00 0.00 50 1012.4
20260905191021 38 233 0.0 4.8 0.00 0.00 0.00 51 1012.6
20260905190520 38 0 0.0 4.8 0.00 0.00 0.00 49 1012.7
20260905185521 38 300 1.6 4.8 0.00 0.00 0.00 47 1012.9
20260905185020 38 306 1.6 4.8 0.00 0.00 0.00 50 1013.1
20260905184019 38 216 0.0 4.8 0.00 0.00 0.00 50 1013.0
20260905183519 38 218 1.6 6.4 0.00 0.00 0.00 51 1013.1
20260905183033 38 45 0.0 6.4 0.00 0.00 0.00 53 1013.2
20260905182521 38 315 1.6 6.4 0.00 0.00 0.00 51 1013.2
20260905182021 38 0 1.6 8.0 0.00 0.00 0.00 53 1013.2
20260905181019 38 15 0.0 8.0 0.00 0.00 0.00 52 1013.4
20260905180519 38 289 3.2 8.0 0.00 0.00 0.00 48 1013.4
20260905180037 38 313 1.6 9.7 0.00 0.00 0.00 51 1013.5
20260905175524 38 326 1.6 9.7 0.00 0.00 0.00 52 1013.5
20260905175021 38 248 3.2 4.8 0.00 0.00 0.00 51 1013.7
20260905174533 38 306 1.6 6.4 0.00 0.00 0.00 56 1013.6
20260905174021 37 292 1.6 6.4 0.00 0.00 0.00 54 1013.6
20260905173521 37 0 0.0 4.8 0.00 0.00 0.00 53 1013.6
20260905172519 37 300 1.6 4.8 0.00 0.00 0.00 51 1013.7
20260905172020 37 0 0.0 4.8 0.00 0.00 0.00 53 1013.6
20260905171539 37 272 1.6 9.7 0.00 0.00 0.00 51 1013.8
20260905171017 37 275 1.6 11.3 0.00 0.00 0.00 51 1013.9
20260905170516 37 296 1.6 11.3 0.00 0.00 0.00 54 1014.0
20260905170035 37 211 3.2 11.3 0.00 0.00 0.00 53 1014.0
20260905165019 37 288 1.6 6.4 0.00 0.00 0.00 53 1014.3
20260905164021 37 216 1.6 4.8 0.00 0.00 0.00 59 1014.4
20260905163521 36 0 0.0 6.4 0.00 0.00 0.00 57 1014.5
20260905163035 36 0 1.6 6.4 0.00 0.00 0.00 59 1014.5
20260905162519 36 302 3.2 6.4 0.00 0.00 0.00 56 1014.6
20260905162018 36 341 3.2 6.4 0.00 0.00 0.00 56 1014.7
20260905161537 36 52 0.0 4.8 0.00 0.00 0.00 59 1014.7
20260905161021 36 300 1.6 4.8 0.00 0.00 0.00 57 1014.7
20260905160521 36 298 1.6 6.4 0.00 0.00 0.00 56 1014.9
20260905155521 36 60 1.6 8.0 0.00 0.00 0.00 58 1014.9
20260905155020 36 39 1.6 3.2 0.00 0.00 0.00 62 1014.8
20260905154019 35 252 0.0 4.8 0.00 0.00 0.00 61 1014.9
20260905153517 35 323 0.0 4.8 0.00 0.00 0.00 62 1014.9
20260905152521 35 273 1.6 3.2 0.00 0.00 0.00 61 1014.9
20260905152021 35 47 0.0 3.2 0.00 0.00 0.00 63 1014.8
20260905151021 34 323 1.6 4.8 0.00 0.00 0.00 65 1014.8
20260905150521 34 0 0.0 3.2 0.00 0.00 0.00 68 1014.7
20260905145516 34 237 0.0 3.2 0.00 0.00 0.00 65 1014.8
20260905145019 33 0 0.0 4.8 0.00 0.00 0.00 68 1014.8
20260905144538 33 11 0.0 6.4 0.00 0.00 0.00 68 1014.8
20260905144018 33 0 1.6 6.4 0.00 0.00 0.00 67 1014.7
20260905143516 33 358 1.6 3.2 0.00 0.00 0.00 67 1014.7
20260905142520 32 221 0.0 3.2 0.00 0.00 0.00 69 1014.8
20260905142018 32 0 0.0 3.2 0.00 0.00 0.00 68 1014.9
20260905141019 32 0 0.0 3.2 0.00 0.00 0.00 73 1015.1
20260905140516 32 0 0.0 1.6 0.00 0.00 0.00 76 1015.0
20260905140034 31 0 0.0 1.6 0.00 0.00 0.00 80 1015.1
20260905135521 30 0 0.0 1.6 0.00 0.00 0.00 80 1015.1
20260905135021 30 0 0.0 1.6 0.00 0.00 0.00 84 1015.2
20260905134021 28 0 0.0 1.6 0.00 0.00 0.00 90 1015.0
20260905133520 27 0 0.0 1.6 0.00 0.00 0.00 93 1015.2
20260905132519 26 0 0.0 0.0 0.00 0.00 0.00 97 1015.2
20260905132020 26 0 0.0 0.0 0.00 0.00 0.00 98 1015.0
20260905131553 25 0 0.0 0.0 0.00 0.00 0.00 98 1015.1
20260905131019 25 0 0.0 0.0 0.00 0.00 0.00 97 1015.2
20260905130517 25 0 0.0 0.0 0.00 0.00 0.00 97 1015.2
20260905125521 24 0 0.0 0.0 0.00 0.00 0.00 97 1015.0
20260905125019 24 0 0.0 0.0 0.00 0.00 0.00 97 1014.9
20260905124020 23 0 0.0 0.0 0.00 0.00 0.00 96 1014.9
20260905123516 23 0 0.0 0.0 0.00 0.00 0.00 96 1015.0
20260905122523 23 0 0.0 0.0 0.00 0.00 0.00 96 1014.9
20260905121539 23 0 0.0 0.0 0.00 0.00 0.00 96 1014.6
20260905121018 23 0 0.0 0.0 0.00 0.00 0.00 96 1014.6
20260905120520 23 0 0.0 0.0 0.00 0.00 0.00 96 1014.7
20260905120041 23 0 0.0 1.6 0.00 0.00 0.00 96 1014.6
20260905115517 23 0 0.0 1.6 0.00 0.00 0.00 96 1014.6
20260905115024 23 0 0.0 1.6 0.00 0.00 0.00 96 1014.5
20260905114533 23 0 0.0 0.0 0.00 0.00 0.00 96 1014.5
20260905114019 23 0 0.0 0.0 0.00 0.00 0.00 96 1014.3
20260905113519 23 0 0.0 0.0 0.00 0.00 0.00 96 1014.4
20260905113035 23 0 0.0 0.0 0.00 0.00 0.00 95 1014.4
20260905112516 23 0 0.0 0.0 0.00 0.00 0.00 95 1014.4
20260905111557 23 0 0.0 0.0 0.00 0.00 0.00 95 1014.2
20260905111019 23 0 0.0 0.0 0.00 0.00 0.00 95 1014.2
20260905110518 23 0 0.0 0.0 0.00 0.00 0.00 95 1014.1
20260905110032 23 0 0.0 0.0 0.00 0.00 0.00 95 1014.3
20260905105517 23 0 0.0 0.0 0.00 0.00 0.00 94 1014.2
20260905105020 23 0 0.0 0.0 0.00 0.00 0.00 94 1014.2
20260905104534 23 0 0.0 0.0 0.00 0.00 0.00 94 1014.2
20260905104016 23 0 0.0 0.0 0.00 0.00 0.00 94 1014.1
20260905103519 23 0 0.0 0.0 0.00 0.00 0.00 94 1014.1
20260905103037 23 0 0.0 0.0 0.00 0.00 0.00 94 1014.0
20260905102518 23 0 0.0 0.0 0.00 0.00 0.00 94 1014.0
20260905101536 23 0 0.0 0.0 0.00 0.00 0.00 94 1014.0
20260905101015 23 0 0.0 0.0 0.00 0.00 0.00 94 1014.0
20260905100519 23 0 0.0 0.0 0.00 0.00 0.00 94 1014.1
20260905100033 23 0 0.0 0.0 0.00 0.00 0.00 94 1014.0
20260905095520 24 0 0.0 0.0 0.00 0.00 0.00 94 1013.9
20260905095020 24 0 0.0 0.0 0.00 0.00 0.00 94 1013.9
20260905094533 24 0 0.0 0.0 0.00 0.00 0.00 94 1013.9
20260905094016 24 0 0.0 0.0 0.00 0.00 0.00 94 1014.1
20260905093517 24 0 0.0 0.0 0.00 0.00 0.00 94 1014.1
20260905093040 24 0 0.0 0.0 0.00 0.00 0.00 94 1014.0
20260905092518 24 0 0.0 0.0 0.00 0.00 0.00 94 1013.9
20260905091533 24 0 0.0 0.0 0.00 0.00 0.00 93 1013.9
20260905091015 24 0 0.0 0.0 0.00 0.00 0.00 93 1013.9
20260905090519 24 0 0.0 0.0 0.00 0.00 0.00 93 1013.9
20260905085518 24 0 0.0 0.0 0.00 0.00 0.00 93 1013.8
20260905085016 24 0 0.0 0.0 0.00 0.00 0.00 92 1013.8
20260905084533 24 0 0.0 0.0 0.00 0.00 0.00 92 1013.9
20260905084019 24 0 0.0 0.0 0.00 0.00 0.00 93 1013.7
20260905083517 24 0 0.0 0.0 0.00 0.00 0.00 93 1013.9
20260905083035 24 0 0.0 0.0 0.00 0.00 0.00 92 1013.9
20260905082517 24 0 0.0 0.0 0.00 0.00 0.00 92 1014.0
20260905081535 24 0 0.0 0.0 0.00 0.00 0.00 92 1013.9
20260905081023 24 0 0.0 0.0 0.00 0.00 0.00 92 1014.0
20260905080520 24 0 0.0 0.0 0.00 0.00 0.00 92 1014.1
20260905080034 24 0 0.0 0.0 0.00 0.00 0.00 92 1014.0
20260905075520 24 0 0.0 0.0 0.00 0.00 0.00 93 1014.0
20260905075016 24 0 0.0 0.0 0.00 0.00 0.00 93 1014.0
20260905074537 25 0 0.0 0.0 0.00 0.00 0.00 93 1013.9
20260905074019 25 0 0.0 0.0 0.00 0.00 0.00 93 1013.8
20260905073518 25 0 0.0 0.0 0.00 0.00 0.00 93 1014.0
20260905073054 25 0 0.0 0.0 0.00 0.00 0.00 93 1014.1
20260905072518 25 0 0.0 0.0 0.00 0.00 0.00 93 1014.1
20260905071542 25 0 0.0 0.0 0.00 0.00 0.00 93 1013.9
20260905071018 25 0 0.0 0.0 0.00 0.00 0.00 93 1014.0
20260905070518 25 0 0.0 0.0 0.00 0.00 0.00 93 1014.0
20260905070035 25 0 0.0 0.0 0.00 0.00 0.00 93 1014.0
20260905065519 25 0 0.0 0.0 0.00 0.00 0.00 93 1014.0
20260905065022 25 0 0.0 0.0 0.00 0.00 0.00 93 1013.9
20260905064018 25 0 0.0 0.0 0.00 0.00 0.00 93 1014.2
20260905063517 25 0 0.0 0.0 0.00 0.00 0.00 93 1014.0
20260905063034 25 0 0.0 0.0 0.00 0.00 0.00 93 1014.1
20260905062518 25 0 0.0 0.0 0.00 0.00 0.00 93 1014.1
20260905061535 25 0 0.0 1.6 0.00 0.00 0.00 93 1014.2
20260905061017 25 0 0.0 0.0 0.00 0.00 0.00 93 1014.2
20260905060520 25 0 0.0 0.0 0.00 0.00 0.00 93 1014.3
20260905060040 25 0 0.0 0.0 0.00 0.00 0.00 93 1014.3
20260905055520 25 0 0.0 0.0 0.00 0.00 0.00 93 1014.1
20260905055019 25 0 0.0 0.0 0.00 0.00 0.00 92 1014.3
20260905054020 25 0 0.0 0.0 0.00 0.00 0.00 92 1014.4
20260905053516 25 0 0.0 0.0 0.00 0.00 0.00 92 1014.4
20260905053048 26 0 0.0 0.0 0.00 0.00 0.00 92 1014.3
20260905052515 26 0 0.0 0.0 0.00 0.00 0.00 92 1014.4
20260905051533 26 0 0.0 0.0 0.00 0.00 0.00 92 1014.4
20260905051020 26 0 0.0 0.0 0.00 0.00 0.00 92 1014.5
20260905050520 26 0 0.0 0.0 0.00 0.00 0.00 91 1014.4
20260905050036 26 0 0.0 0.0 0.00 0.00 0.00 91 1014.4
20260905045520 26 0 0.0 0.0 0.00 0.00 0.00 91 1014.5
20260905045020 26 0 0.0 0.0 0.00 0.00 0.00 90 1014.5
20260905044016 26 0 0.0 0.0 0.00 0.00 0.00 90 1014.3
20260905043516 26 0 0.0 0.0 0.00 0.00 0.00 89 1014.3
20260905043034 26 0 0.0 0.0 0.00 0.00 0.00 89 1014.3
20260905042520 26 0 0.0 0.0 0.00 0.00 0.00 89 1014.3
20260905041537 26 0 0.0 0.0 0.00 0.00 0.00 89 1014.4
20260905041020 26 0 0.0 0.0 0.00 0.00 0.00 89 1014.4
20260905040521 26 0 0.0 0.0 0.00 0.00 0.00 89 1014.3
20260905035518 26 0 0.0 0.0 0.00 0.00 0.00 89 1014.6
20260905035018 27 0 0.0 0.0 0.00 0.00 0.00 89 1014.5
20260905034534 27 0 0.0 0.0 0.00 0.00 0.00 88 1014.5
20260905034019 27 0 0.0 0.0 0.00 0.00 0.00 88 1014.5
20260905033517 27 0 0.0 0.0 0.00 0.00 0.00 88 1014.6
20260905033048 27 0 0.0 0.0 0.00 0.00 0.00 88 1014.6
20260905032521 27 0 0.0 0.0 0.00 0.00 0.00 87 1014.6
20260905031537 27 0 0.0 0.0 0.00 0.00 0.00 87 1014.7
20260905031019 27 0 0.0 0.0 0.00 0.00 0.00 86 1014.6
20260905030517 27 0 0.0 0.0 0.00 0.00 0.00 86 1014.7
20260905030034 27 0 0.0 0.0 0.00 0.00 0.00 86 1014.7
20260905025519 27 0 0.0 0.0 0.00 0.00 0.00 86 1014.7
20260905025018 27 0 0.0 0.0 0.00 0.00 0.00 86 1014.7
20260905024536 27 0 0.0 0.0 0.00 0.00 0.00 86 1014.7
20260905024019 27 0 0.0 0.0 0.00 0.00 0.00 85 1014.6
20260905023521 27 0 0.0 0.0 0.00 0.00 0.00 84 1014.6
20260905023040 28 0 0.0 0.0 0.00 0.00 0.00 84 1014.4
20260905022520 28 0 0.0 0.0 0.00 0.00 0.00 84 1014.6
20260905021538 28 0 0.0 0.0 0.00 0.00 0.00 83 1014.5
20260905021024 28 0 0.0 0.0 0.00 0.00 0.00 83 1014.5
20260905020519 28 0 0.0 0.0 0.00 0.00 0.00 83 1014.4
20260905020037 28 0 0.0 0.0 0.00 0.00 0.00 82 1014.4
20260905015516 28 0 0.0 0.0 0.00 0.00 0.00 82 1014.3
20260905015016 28 0 0.0 0.0 0.00 0.00 0.00 82 1014.2
20260905014535 28 0 0.0 0.0 0.00 0.00 0.00 82 1014.1
20260905014017 28 0 0.0 0.0 0.00 0.00 0.00 81 1014.1
20260905013520 28 0 0.0 0.0 0.00 0.00 0.00 81 1014.0
20260905012519 29 0 0.0 0.0 0.00 0.00 0.00 80 1013.9
20260905011018 30 0 0.0 0.0 0.00 0.00 0.00 79 1013.6
20260905010516 30 0 0.0 0.0 0.00 0.00 0.00 78 1013.5
20260905010036 30 0 0.0 0.0 0.00 0.00 0.00 76 1013.5
20260905005515 30 0 0.0 0.0 0.00 0.00 0.00 76 1013.5
20260905005021 30 0 0.0 0.0 0.00 0.00 0.00 76 1013.5
20260905004536 30 0 0.0 0.0 0.00 0.00 0.00 76 1013.3